Location: Ithaca
(42.4410°N, 76.4970°W)
Time: 09:07:17
(UTC-04:00)

Hubble Space Telescope - Visible Passes

Search period start: 03 August 2015 00:00
Search period end: 13 August 2015 00:00
Orbit: 541 x 545 km, 28.5° (Epoch: 02 August)

Date Brightness Start Highest point End Pass type
(mag) Time Alt. Az. Time Alt. Az. Time Alt. Az.
06 Aug 3.1 22:01:37 10° SSW 22:02:04 11° SSW 22:02:04 11° SSW visible
07 Aug 3.0 21:52:40 10° SSW 21:53:40 11° S 21:53:40 11° S visible
08 Aug 3.0 21:43:55 10° SSW 21:45:02 11° S 21:45:12 11° S visible
09 Aug 3.1 21:35:34 10° SSW 21:36:00 10° S 21:36:24 10° S visible
